TimeCDT,TemperatureF,Dew PointF,Humidity,Sea Level PressureIn,VisibilityMPH,Wind Direction,Wind SpeedMPH,Gust SpeedMPH,PrecipitationIn,Events,Conditions,WindDirDegrees,DateUTC
12:15 AM,79.9,67.8,66,29.81,10.0,Calm,Calm,-,N/A,,Clear,0,2013-09-01 05:15:00
12:35 AM,80.4,67.3,64,29.80,10.0,Calm,Calm,-,N/A,,Clear,0,2013-09-01 05:35:00
12:55 AM,79.2,67.3,67,29.80,10.0,Calm,Calm,-,N/A,,Clear,0,2013-09-01 05:55:00
1:15 AM,77.9,67.8,71,29.81,10.0,Calm,Calm,-,N/A,,Clear,0,2013-09-01 06:15:00
1:35 AM,78.8,68.0,69,29.82,10.0,Calm,Calm,-,N/A,,Clear,0,2013-09-01 06:35:00
1:55 AM,77.5,67.8,72,29.81,10.0,Calm,Calm,-,N/A,,Clear,0,2013-09-01 06:55:00
2:15 AM,76.8,67.6,73,29.82,10.0,Calm,Calm,-,N/A,,Clear,0,2013-09-01 07:15:00
2:35 AM,75.2,68.0,78,29.82,10.0,Calm,Calm,-,N/A,,Clear,0,2013-09-01 07:35:00
2:55 AM,74.3,68.2,81,29.82,10.0,Calm,Calm,-,N/A,,Clear,0,2013-09-01 07:55:00
3:15 AM,74.5,68.4,81,29.82,10.0,Calm,Calm,-,N/A,,Clear,0,2013-09-01 08:15:00
3:35 AM,73.6,69.4,87,29.82,10.0,Calm,Calm,-,N/A,,Clear,0,2013-09-01 08:35:00
3:55 AM,72.1,69.1,90,29.82,10.0,Calm,Calm,-,N/A,,Clear,0,2013-09-01 08:55:00
4:15 AM,72.5,69.1,89,29.82,10.0,Calm,Calm,-,N/A,,Clear,0,2013-09-01 09:15:00
4:35 AM,71.1,68.4,91,29.82,10.0,Calm,Calm,-,N/A,,Clear,0,2013-09-01 09:35:00
4:55 AM,71.8,68.9,91,29.82,7.0,Calm,Calm,-,N/A,,Clear,0,2013-09-01 09:55:00
5:15 AM,71.6,69.3,92,29.82,7.0,Calm,Calm,-,N/A,,Clear,0,2013-09-01 10:15:00
5:35 AM,71.2,69.6,95,29.82,7.0,Calm,Calm,-,N/A,,Clear,0,2013-09-01 10:35:00
5:55 AM,70.9,69.6,96,29.82,7.0,Calm,Calm,-,N/A,,Clear,0,2013-09-01 10:55:00
6:15 AM,69.8,68.4,95,29.82,7.0,Calm,Calm,-,N/A,,Clear,0,2013-09-01 11:15:00
6:35 AM,70.5,69.6,97,29.83,7.0,Calm,Calm,-,N/A,,Clear,0,2013-09-01 11:35:00
7:55 AM,73.4,71.6,94,29.85,7.0,Calm,Calm,-,N/A,,Clear,0,2013-09-01 12:55:00
8:55 AM,80.6,69.8,70,29.87,10.0,Calm,Calm,-,N/A,,Clear,0,2013-09-01 13:55:00
9:55 AM,86.0,69.8,58,29.87,10.0,Calm,Calm,-,N/A,,Clear,0,2013-09-01 14:55:00
12:55 PM,102.2,64.4,29,29.84,10.0,ESE,3.5,-,N/A,,Clear,110,2013-09-01 17:55:00
1:55 PM,104.0,62.6,26,29.82,10.0,ESE,6.9,-,N/A,,Clear,120,2013-09-01 18:55:00
11:35 PM,84.0,73.0,69,29.88,10.0,NNE,3.5,-,N/A,,Scattered Clouds,30,2013-09-02 04:35:00
11:55 PM,84.6,73.6,69,29.90,10.0,NNW,11.5,-,N/A,,Scattered Clouds,340,2013-09-02 04:55:00